Preview of NWS' New Version of Forecast
This preview is not operational and should not be used for support decisions.

Regional Weather Roundup (RWR)

Issued by National Weather Service (NWS)

                            
000
ASCA42 TJSJ 241610
RWRPR 
PUERTO RICO/U.S. VIRGIN ISLANDS HOURLY WEATHER ROUNDUP
NATIONAL WEATHER SERVICE SAN JUAN PR
1200 PM AST FRI MAY 24 2019

PRZ001>002-007>008-010-241700-
PUERTO RICO
  
CITY           SKY/WX    TMP DP  RH WIND       PRES   REMARKS
SAN JUAN LMM   MOSUNNY   84  72  65 SE10      29.98S                  
AGUADILLA      HVY RAIN  79  75  89 E13       29.98S                  
CEIBA          MOSUNNY   82  72  69 N5        30.00F                  
$$

VIZ001>002-241700-
U.S. VIRGIN ISLANDS
  
CITY           SKY/WX    TMP DP  RH WIND       PRES   REMARKS
CHARLOTTE AMA  MOSUNNY   84  72  65 SE15      29.97F                  
CHRISTIANSTED  MOSUNNY   88  72  58 E18       29.98S HX  94           
$$

HOURLY WEATHER ROUNDUP FOR THE NEWS MEDIA
  
CITY           SKY/WX    TMP DP  RH WIND       PRES   REMARKS
ORLANDO        FAIR      86  63  45 NE12      30.16S                  
NEW YORK       FAIR      73  52  47 NW21G38   29.88R                  
NEWARK         FAIR      74  49  41 NW26G37   29.89S                  
CHICAGO        CLOUDY    60  52  74 SE8       30.10S                  
HARTFORD       PTSUNNY   71  51  49 NW16G29   29.70R                  
BOSTON         PTSUNNY   71  48  43 NW29G38   29.72R                  
DALLAS         PTSUNNY   83  69  62 S13       30.05S                  
PHILADELPHIA   FAIR      76  48  37 NW23      29.97R                  
LOS ANGELES    FAIR      63  50  62 W7        29.99S                  
WASHINGTON DC  FAIR      76  53  44 N12G22    30.06S